Regional Weather Roundup
Issued by NWS

Home | Current Version | Previous Version | Text Only | Print | Product List | Glossary On
Versions: 1 2 3 4 5 6 7 8 9 10 11 12 13 14 15 16 17 18 19 20 21 22 23 24 25 26 27 28 29 30 31 32 33 34 35 36 37 38 39 40 41 42 43 44 45 46 47 48 49 50
000
ASUS43 KLMK 131510
RWRKY
KENTUCKY REGIONAL WEATHER ROUNDUP
NATIONAL WEATHER SERVICE LOUISVILLE KY
1100 AM EDT SUN JUL 13 2014

NOTE "FAIR" INDICATES FEW OR NO CLOUDS BELOW 12,000 FEET
WITH NO SIGNIFICANT WEATHER AND/OR OBSTRUCTIONS TO VISIBILITY.

KYZ001>023-026-027-061>063-070>075-131600-
WESTERN AND SOUTH CENTRAL KENTUCKY

CITY           SKY/WX    TMP DP  RH WIND       PRES   REMARKS
PADUCAH        SUNNY     87  76  69 SW9       30.04F HX  97
HENDERSON      SUNNY     84  75  74 SW8       30.01F HX  92
OWENSBORO      SUNNY     87  75  67 SW10      30.04S HX  96
HOPKINSVILLE   MOSUNNY   86  74  66 SW13      30.08F HX  94
BOWLING GREEN  MOSUNNY   88  71  57 SW9       30.08F HX  94
GLASGOW        MOSUNNY   86  68  54 W9        30.09F
$$

KYZ024-025-028>034-038-045-046-053-131600-
NORTH CENTRAL KENTUCKY

CITY           SKY/WX    TMP DP  RH WIND       PRES   REMARKS
LOUISVILLE/SDF CLOUDY    88  72  58 SW14      30.01F HX  94
LOUISVILLE/LOU MOSUNNY   86  72  62 SW12      30.02F HX  92
FORT KNOX      MOSUNNY   85  74  69 S10       30.03F HX  92
$$

KYZ035>037-039>044-047>052-055>060-089>105-131600-
NORTHEAST KENTUCKY

CITY           SKY/WX    TMP DP  RH WIND       PRES   REMARKS
LEXINGTON      PTSUNNY   85  70  60 SW14G21   30.07F
COVINGTON      CLOUDY    81  71  71 SW13      29.99F
FRANKFORT      PTSUNNY   84  71  65 SW14      30.04F
$$

KYZ054-064>069-076>088-106>120-131600-
SOUTHEAST KENTUCKY

CITY           SKY/WX    TMP DP  RH WIND       PRES   REMARKS
JACKSON        MOSUNNY   81  68  64 CALM      30.12F
LONDON         PTSUNNY   85  66  53 SW14      30.14F
SOMERSET       PTSUNNY   82  66  57 SW12      30.13S
MIDDLESBORO    CLOUDY    82  71  71 SE6       30.14F
MONTICELLO     SUNNY     86  71  60 SW7       30.14F HX  91
$$




USA.gov is the U.S. government's official web portal to all federal, state and local government web resources and services.